#timestamp,LO_Frequency,Hit,StdDev 
1458867615.0,286046999.3,N
1458867615.9,286046999.3,N
1458867635.7,286046997.0,N
1458867655.6,286046995.8,N
1458867675.4,286046992.1,Y
1458867695.2,286046997.9,P
1458867715.1,286046997.1,P
1458867716.0,286046997.1,P
1458867735.8,286046995.6,Y
1458867755.7,286046997.7,P
1458867775.5,286046996.6,P
1458867795.3,286046997.7,P
1458867815.2,286046996.8,Y
1458867835.9,286046998.9,P
1458867855.7,286046997.7,N
1458867875.5,286046996.2,P
1458867895.4,286046996.6,Y
1458867915.2,286047004.4,P
1458867935.0,286046999.9,N
1458867936.0,286046999.9,N
1458867955.8,286046998.9,N
1458867975.6,286046998.7,N
1458867995.4,286046997.5,N
1458868015.3,286046996.7,N
1458868035.1,286046999.5,N
1458868055.8,286046998.4,N
1458868075.7,286046998.3,N
1458868095.5,286047000.6,N
1458868115.3,286046999.0,N
1458868135.2,286046999.0,N
1458868155.9,286047000.8,N
1458868175.7,286047001.4,N
1458868195.5,286047000.3,N
1458868215.4,286047002.8,N
1458868235.2,286047002.7,N
1458868255.0,286047003.9,N
1458868255.9,286047003.9,N
1458868275.8,286047003.2,N
1458868295.6,286047003.1,N
1458868315.4,286047003.2,N
1458868335.3,286047003.5,N
1458868355.1,286047005.9,N
1458868356.0,286047005.9,N
1458868375.8,286047005.0,N
1458868395.7,286047007.4,N
1458868415.5,286047006.5,N
1458868435.3,286047007.3,N
1458868455.2,286047008.8,N
1458868475.9,286047007.7,N
1458868495.7,286047007.1,N
1458868515.5,286047001.8,N
1458868535.4,286046999.7,N
1458868555.2,286047005.6,N
1458868575.0,286047007.9,N
1458868575.9,286047007.9,N
1458868595.8,286047011.2,Y
1458868615.6,286047008.4,P
1458868635.4,286047010.2,P
1458868655.3,286047010.4,P
1458868675.1,286047007.0,N
1458868695.8,286047006.4,N
1458868715.7,286047008.8,Y
1458868735.5,286047001.1,P
1458868755.3,286046999.2,N
1458868775.2,286046999.4,N
1458868795.0,286046999.9,N
1458868795.9,286046999.9,N
1458868815.7,286047001.4,N
1458868835.6,286047000.4,N
1458868855.4,286047000.1,N
1458868875.2,286047002.3,N
1458868895.1,286047001.3,N
1458868896.0,286047001.3,N
1458868915.8,286047004.5,N
1458868935.6,286047006.8,Y
1458868955.5,286047010.8,P
1458868975.3,286047009.1,N
1458868995.1,286047006.7,N
1458869015.9,286047009.0,N
1458869035.7,286047011.9,Y
1458869055.5,286047005.2,P
1458869075.4,286047006.5,P
1458869095.2,286047012.2,P
1458869115.0,286047011.4,Y
1458869115.9,286047011.4,P
1458869135.8,286047003.8,N
1458869155.6,286047003.6,N
1458869175.4,286047004.6,N
1458869195.3,286047008.6,N
1458869215.1,286047010.0,Y
1458869235.8,286047001.0,P
1458869255.7,286047000.9,N
1458869275.5,286046999.3,N
1458869295.3,286047000.2,N
1458869315.2,286046998.6,N
1458869335.9,286046996.8,N
1458869355.7,286046997.9,N
1458869375.6,286046995.2,N
1458869395.4,286046993.6,N
1458869415.2,286046995.7,N
1458869435.1,286046997.6,N
1458869436.0,286046997.6,N
1458869455.8,286046995.5,N
1458869475.6,286047000.8,N
1458869495.4,286046998.0,N
1458869515.3,286046995.0,N
1458869535.1,286046995.0,N
1458869555.8,286046997.6,N
1458869575.7,286046993.8,N
1458869595.5,286046997.9,N
1458869615.3,286046994.1,N
1458869635.2,286046992.3,N
1458869655.9,286046990.2,Y
1458869675.7,286046994.5,P
1458869695.6,286046995.5,P
1458869715.4,286046994.8,P
1458869735.2,286046992.7,Y
1458869755.1,286046995.9,P
1458869756.0,286046995.9,P
1458869775.8,286046994.3,P
1458869795.6,286046994.4,Y
1458869815.5,286046997.1,P
1458869835.3,286046995.8,P
1458869855.1,286046996.4,P
1458869875.9,286046996.4,Y
1458869895.7,286046999.0,P
1458869915.5,286046998.7,N
1458869935.4,286047000.5,N
1458869955.2,286046999.8,N
1458869975.0,286046998.3,N
1458869975.9,286046998.3,N
1458869995.8,286046999.6,N
1458870015.6,286046999.0,N
1458870035.4,286046994.9,Y
1458870055.3,286046998.5,P
1458870075.1,286046999.1,P
1458870076.0,286046999.1,P
1458870095.8,286046997.1,Y
1458870115.7,286046994.9,P
1458870135.5,286046999.2,N
1458870155.3,286046997.0,N
1458870175.2,286046996.7,N
1458870195.9,286046995.3,Y
1458870215.7,286046998.8,P
1458870235.6,286046996.5,P
1458870255.4,286046995.7,P
1458870275.2,286046997.5,N
1458870295.1,286046997.4,N
1458870296.0,286046997.4,N
1458870315.8,286046997.0,Y
1458870335.6,286046998.5,P
1458870355.5,286046999.9,N
1458870375.3,286046999.2,N
1458870395.1,286047000.0,N
1458870415.9,286046999.8,N
1458870435.7,286047000.3,N
1458870455.5,286047001.0,N
1458870475.3,286047000.9,N
1458870495.2,286047002.6,N
1458870515.0,286046998.2,N
1458870515.9,286046998.2,N
1458870535.7,286046997.4,N
1458870555.6,286046996.9,N
1458870575.4,286046996.9,N
1458870595.2,286046997.6,N
1458870615.1,286046997.7,N
1458870616.0,286046997.7,N
1458870635.8,286046997.2,N
1458870655.6,286046992.1,Y
1458870675.5,286046993.8,P
1458870695.3,286046999.6,N
1458870715.1,286046999.2,N
1458870735.9,286046993.9,N
1458870755.7,286046994.6,N
1458870775.5,286046990.5,Y
1458870795.4,286046996.4,P
1458870815.2,286046997.9,P
1458870835.0,286046998.0,P
1458870835.9,286046998.0,N
1458870855.8,286046995.1,Y
1458870875.6,286046999.9,P
1458870895.4,286046999.4,N
1458870915.3,286047004.0,P
1458870935.1,286046999.9,N
1458870936.0,286046999.9,N
1458870955.8,286046999.9,N
1458870975.7,286047001.6,N
1458870995.5,286047003.9,N
1458871015.3,286047005.1,N
1458871035.2,286047001.7,N
1458871055.9,286047005.9,N
1458871075.7,286047002.0,N
1458871095.6,286046998.1,N
1458871115.4,286047002.2,N
1458871135.2,286047000.3,N
1458871155.0,286047000.4,N
1458871155.9,286047000.4,N
1458871175.8,286047001.2,N
1458871195.6,286046998.9,N
